| time (UTC) | temp F | wind direction | speed MPH | gust MPH | rain 1hr in | rain 24hr in | rain mn in | humidity % | barometer mb |
| 20260507025003 | 55 | 208 | 4.0 | 8.0 | 0.00 | 0.06 | 0.00 | 85 | 1013.3 |
| 20260507024003 | 55 | 194 | 2.0 | 7.0 | 0.00 | 0.06 | 0.00 | 85 | 1013.5 |
| 20260507023003 | 55 | 186 | 1.0 | 6.0 | 0.00 | 0.06 | 0.00 | 85 | 1013.5 |
| 20260507022003 | 55 | 195 | 2.0 | 4.0 | 0.00 | 0.06 | 0.00 | 85 | 1013.4 |
| 20260507021003 | 53 | 196 | 1.0 | 4.0 | 0.00 | 0.06 | 0.00 | 87 | 1013.7 |
| 20260507020003 | 53 | 147 | 1.0 | 3.0 | 0.00 | 0.06 | 0.00 | 86 | 1013.6 |
| 20260507015003 | 54 | 150 | 1.0 | 2.0 | 0.00 | 0.06 | 0.00 | 85 | 1013.2 |
| 20260507014003 | 54 | 179 | 1.0 | 3.0 | 0.00 | 0.06 | 0.00 | 86 | 1013.5 |
| 20260507013003 | 53 | 188 | 2.0 | 6.0 | 0.00 | 0.06 | 0.00 | 88 | 1013.5 |
| 20260507012003 | 53 | 198 | 2.0 | 4.0 | 0.00 | 0.06 | 0.00 | 88 | 1013.5 |
| 20260507011003 | 53 | 205 | 2.0 | 6.0 | 0.00 | 0.06 | 0.00 | 88 | 1013.1 |
| 20260507010003 | 53 | 199 | 2.0 | 6.0 | 0.00 | 0.06 | 0.00 | 87 | 1013.0 |
| 20260507005003 | 53 | 192 | 2.0 | 3.0 | 0.00 | 0.06 | 0.00 | 88 | 1013.0 |
| 20260507004003 | 54 | 203 | 2.0 | 6.0 | 0.00 | 0.06 | 0.00 | 88 | 1012.8 |
| 20260507003003 | 54 | 217 | 2.0 | 6.0 | 0.00 | 0.06 | 0.00 | 88 | 1012.9 |
| 20260507002003 | 54 | 221 | 2.0 | 6.0 | 0.00 | 0.06 | 0.00 | 89 | 1012.9 |
| 20260507001003 | 54 | 226 | 2.0 | 3.0 | 0.00 | 0.06 | 0.00 | 89 | 1012.6 |
| 20260507000003 | 54 | 228 | 2.0 | 4.0 | 0.00 | 0.06 | 0.00 | 89 | 1012.7 |
| 20260506235003 | 54 | 170 | 2.0 | 3.0 | 0.00 | 0.06 | 0.00 | 89 | 1012.6 |
| 20260506234003 | 54 | 236 | 2.0 | 3.0 | 0.00 | 0.06 | 0.00 | 89 | 1012.4 |
| 20260506233003 | 54 | 259 | 1.0 | 3.0 | 0.00 | 0.06 | 0.00 | 89 | 1012.4 |
| 20260506232003 | 54 | 285 | 2.0 | 4.0 | 0.00 | 0.06 | 0.00 | 89 | 1012.2 |
| 20260506231003 | 55 | 289 | 5.0 | 9.0 | 0.00 | 0.06 | 0.00 | 88 | 1012.1 |
| 20260506230003 | 55 | 291 | 4.0 | 10.0 | 0.00 | 0.06 | 0.00 | 87 | 1012.0 |
| 20260506225003 | 55 | 52 | 4.0 | 9.0 | 0.00 | 0.06 | 0.00 | 87 | 1011.2 |
| 20260506224003 | 55 | 33 | 3.0 | 7.0 | 0.00 | 0.06 | 0.00 | 87 | 1010.9 |
| 20260506223003 | 55 | 319 | 3.0 | 8.0 | 0.00 | 0.06 | 0.00 | 86 | 1011.4 |
| 20260506222003 | 56 | 335 | 4.0 | 8.0 | 0.00 | 0.06 | 0.00 | 83 | 1011.9 |
| 20260506221003 | 56 | 334 | 5.0 | 11.0 | 0.00 | 0.06 | 0.00 | 81 | 1012.0 |
| 20260506220011 | 57 | 305 | 7.0 | 17.0 | 0.00 | 0.06 | 0.00 | 81 | 1012.0 |
| 20260506215004 | 57 | 304 | 8.0 | 14.0 | 0.00 | 0.06 | 0.06 | 81 | 1012.1 |
| 20260506214003 | 57 | 300 | 6.0 | 11.0 | 0.00 | 0.06 | 0.06 | 82 | 1012.1 |
| 20260506213003 | 57 | 292 | 8.0 | 16.0 | 0.00 | 0.06 | 0.06 | 84 | 1012.2 |
| 20260506212003 | 56 | 287 | 7.0 | 16.0 | 0.00 | 0.06 | 0.06 | 88 | 1012.6 |
| 20260506211003 | 55 | 311 | 4.0 | 9.0 | 0.00 | 0.06 | 0.06 | 87 | 1011.5 |
| 20260506210004 | 55 | 319 | 3.0 | 7.0 | 0.00 | 0.06 | 0.06 | 87 | 1010.9 |
| 20260506205003 | 56 | 318 | 2.0 | 3.0 | 0.00 | 0.06 | 0.06 | 85 | 1010.7 |
| 20260506204003 | 56 | 331 | 2.0 | 4.0 | 0.00 | 0.06 | 0.06 | 83 | 1010.4 |
| 20260506203003 | 56 | 69 | 0.0 | 2.0 | 0.00 | 0.06 | 0.06 | 83 | 1010.5 |
| 20260506202003 | 56 | 86 | 0.0 | 3.0 | 0.00 | 0.06 | 0.06 | 82 | 1010.0 |
| 20260506201003 | 56 | 78 | 0.0 | 2.0 | 0.00 | 0.06 | 0.06 | 82 | 1010.0 |
| 20260506200003 | 57 | 79 | 2.0 | 4.0 | 0.00 | 0.06 | 0.06 | 82 | 1010.0 |
| 20260506195003 | 56 | 82 | 1.0 | 2.0 | 0.00 | 0.06 | 0.06 | 84 | 1010.1 |
| 20260506194003 | 57 | 136 | 0.0 | 2.0 | 0.00 | 0.06 | 0.06 | 83 | 1010.0 |
| 20260506193003 | 57 | 114 | 1.0 | 2.0 | 0.00 | 0.06 | 0.06 | 83 | 1010.0 |
| 20260506192003 | 57 | 90 | 0.0 | 1.0 | 0.00 | 0.06 | 0.06 | 83 | 1009.9 |
| 20260506191003 | 57 | 83 | 0.0 | 2.0 | 0.00 | 0.06 | 0.06 | 83 | 1009.8 |
| 20260506190003 | 57 | 81 | 1.0 | 3.0 | 0.00 | 0.06 | 0.06 | 83 | 1010.0 |
| 20260506185003 | 57 | 0 | 0.0 | 0.0 | 0.00 | 0.06 | 0.06 | 86 | 1009.8 |
| 20260506184003 | 58 | 0 | 0.0 | 0.0 | 0.00 | 0.06 | 0.06 | 85 | 1010.0 |
| 20260506183003 | 58 | 56 | 1.0 | 2.0 | 0.00 | 0.06 | 0.06 | 85 | 1009.8 |
| 20260506182003 | 58 | 25 | 2.0 | 4.0 | 0.00 | 0.06 | 0.06 | 84 | 1009.6 |
| 20260506181003 | 58 | 64 | 1.0 | 2.0 | 0.00 | 0.06 | 0.06 | 85 | 1009.9 |
| 20260506180004 | 59 | 61 | 3.0 | 4.0 | 0.01 | 0.06 | 0.06 | 83 | 1010.2 |
| 20260506175003 | 59 | 34 | 3.0 | 4.0 | 0.01 | 0.06 | 0.06 | 83 | 1009.7 |
| 20260506174003 | 60 | 346 | 4.0 | 7.0 | 0.01 | 0.06 | 0.06 | 82 | 1009.6 |
| 20260506173003 | 60 | 308 | 4.0 | 7.0 | 0.01 | 0.06 | 0.06 | 82 | 1009.5 |
| 20260506172003 | 61 | 291 | 4.0 | 7.0 | 0.01 | 0.06 | 0.06 | 81 | 1009.4 |
| 20260506171003 | 62 | 337 | 3.0 | 8.0 | 0.01 | 0.06 | 0.06 | 82 | 1009.3 |
| 20260506170003 | 62 | 317 | 5.0 | 11.0 | 0.00 | 0.05 | 0.05 | 80 | 1009.2 |
| 20260506165003 | 63 | 329 | 3.0 | 6.0 | 0.00 | 0.05 | 0.05 | 78 | 1008.9 |
| 20260506164004 | 64 | 347 | 2.0 | 3.0 | 0.00 | 0.05 | 0.05 | 76 | 1008.7 |
| 20260506163003 | 64 | 360 | 2.0 | 4.0 | 0.00 | 0.05 | 0.05 | 72 | 1008.7 |
| 20260506162003 | 65 | 18 | 3.0 | 4.0 | 0.00 | 0.05 | 0.05 | 71 | 1008.1 |
| 20260506161003 | 65 | 37 | 2.0 | 6.0 | 0.00 | 0.05 | 0.05 | 69 | 1008.3 |
| 20260506160003 | 64 | 52 | 3.0 | 7.0 | 0.00 | 0.05 | 0.05 | 72 | 1008.5 |
| 20260506155003 | 64 | 45 | 2.0 | 6.0 | 0.00 | 0.05 | 0.05 | 78 | 1008.9 |
| 20260506154003 | 64 | 95 | 3.0 | 6.0 | 0.00 | 0.05 | 0.05 | 73 | 1008.8 |
| 20260506153003 | 64 | 141 | 2.0 | 6.0 | 0.00 | 0.05 | 0.05 | 74 | 1009.6 |
| 20260506152003 | 65 | 72 | 2.0 | 4.0 | 0.00 | 0.05 | 0.05 | 73 | 1009.1 |
| 20260506151003 | 65 | 54 | 2.0 | 4.0 | 0.02 | 0.05 | 0.05 | 71 | 1009.0 |
| 20260506150003 | 67 | 341 | 1.0 | 2.0 | 0.05 | 0.05 | 0.05 | 68 | 1009.3 |
| 20260506145003 | 65 | 335 | 2.0 | 4.0 | 0.05 | 0.05 | 0.05 | 71 | 1009.3 |
| 20260506144003 | 64 | 304 | 3.0 | 3.0 | 0.05 | 0.05 | 0.05 | 74 | 1009.4 |
| 20260506143003 | 61 | 296 | 3.0 | 4.0 | 0.05 | 0.05 | 0.05 | 79 | 1009.9 |
| 20260506142003 | 63 | 331 | 1.0 | 4.0 | 0.05 | 0.05 | 0.05 | 76 | 1010.0 |
| 20260506141003 | 64 | 62 | 1.0 | 4.0 | 0.03 | 0.03 | 0.03 | 75 | 1010.0 |
| 20260506140003 | 69 | 52 | 2.0 | 4.0 | 0.00 | 0.00 | 0.00 | 55 | 1009.6 |
| 20260506135003 | 70 | 29 | 2.0 | 6.0 | 0.00 | 0.00 | 0.00 | 54 | 1009.4 |
| 20260506134003 | 70 | 6 | 2.0 | 4.0 | 0.00 | 0.00 | 0.00 | 52 | 1009.3 |
| 20260506133003 | 70 | 43 | 2.0 | 6.0 | 0.00 | 0.00 | 0.00 | 52 | 1009.3 |
| 20260506132003 | 71 | 356 | 1.0 | 4.0 | 0.00 | 0.00 | 0.00 | 52 | 1009.5 |
| 20260506131003 | 71 | 347 | 2.0 | 4.0 | 0.00 | 0.00 | 0.00 | 49 | 1009.7 |
| 20260506130003 | 69 | 331 | 1.0 | 4.0 | 0.00 | 0.00 | 0.00 | 54 | 1010.1 |
| 20260506125003 | 69 | 324 | 2.0 | 4.0 | 0.00 | 0.00 | 0.00 | 57 | 1010.1 |
| 20260506124003 | 71 | 352 | 2.0 | 4.0 | 0.00 | 0.00 | 0.00 | 53 | 1009.9 |
| 20260506123003 | 71 | 5 | 2.0 | 4.0 | 0.00 | 0.00 | 0.00 | 49 | 1010.0 |
| 20260506122003 | 71 | 330 | 1.0 | 4.0 | 0.00 | 0.00 | 0.00 | 47 | 1010.2 |
| 20260506121003 | 71 | 300 | 2.0 | 4.0 | 0.00 | 0.00 | 0.00 | 49 | 1010.4 |
| 20260506120003 | 71 | 271 | 2.0 | 3.0 | 0.00 | 0.00 | 0.00 | 47 | 1010.3 |
| 20260506115003 | 72 | 347 | 1.0 | 4.0 | 0.00 | 0.00 | 0.00 | 50 | 1010.0 |
| 20260506114003 | 69 | 314 | 2.0 | 6.0 | 0.00 | 0.00 | 0.00 | 51 | 1010.4 |
| 20260506113003 | 71 | 327 | 2.0 | 6.0 | 0.00 | 0.00 | 0.00 | 50 | 1010.4 |
| 20260506112003 | 69 | 350 | 2.0 | 6.0 | 0.00 | 0.00 | 0.00 | 52 | 1010.5 |
| 20260506111003 | 69 | 15 | 2.0 | 4.0 | 0.00 | 0.00 | 0.00 | 53 | 1010.9 |
| 20260506110003 | 67 | 241 | 3.0 | 4.0 | 0.00 | 0.00 | 0.00 | 54 | 1011.0 |
| 20260506105003 | 70 | 277 | 2.0 | 7.0 | 0.00 | 0.00 | 0.00 | 51 | 1011.1 |
| 20260506104003 | 70 | 248 | 2.0 | 7.0 | 0.00 | 0.00 | 0.00 | 51 | 1011.1 |
| 20260506103003 | 67 | 270 | 4.0 | 8.0 | 0.00 | 0.00 | 0.00 | 55 | 1011.6 |
| 20260506102003 | 67 | 264 | 2.0 | 7.0 | 0.00 | 0.00 | 0.00 | 52 | 1011.5 |
| 20260506101003 | 68 | 245 | 2.0 | 8.0 | 0.00 | 0.00 | 0.00 | 53 | 1011.7 |
| 20260506100003 | 67 | 211 | 3.0 | 7.0 | 0.00 | 0.00 | 0.00 | 53 | 1011.7 |
| 20260506095003 | 67 | 228 | 3.0 | 7.0 | 0.00 | 0.00 | 0.00 | 56 | 1011.7 |
| 20260506094003 | 66 | 263 | 2.0 | 7.0 | 0.00 | 0.00 | 0.00 | 59 | 1011.9 |
| 20260506093003 | 65 | 276 | 4.0 | 8.0 | 0.00 | 0.00 | 0.00 | 59 | 1012.0 |
| 20260506092003 | 65 | 276 | 4.0 | 9.0 | 0.00 | 0.00 | 0.00 | 61 | 1011.9 |
| 20260506091003 | 65 | 247 | 3.0 | 6.0 | 0.00 | 0.00 | 0.00 | 62 | 1012.1 |
| 20260506090003 | 63 | 292 | 5.0 | 8.0 | 0.00 | 0.00 | 0.00 | 63 | 1012.2 |
| 20260506085003 | 64 | 273 | 4.0 | 9.0 | 0.00 | 0.00 | 0.00 | 63 | 1012.0 |
| 20260506084006 | 63 | 248 | 4.0 | 8.0 | 0.00 | 0.00 | 0.00 | 62 | 1012.1 |
| 20260506083003 | 63 | 244 | 5.0 | 9.0 | 0.00 | 0.00 | 0.00 | 61 | 1012.4 |
| 20260506082003 | 63 | 247 | 5.0 | 9.0 | 0.00 | 0.00 | 0.00 | 63 | 1011.9 |
| 20260506081003 | 62 | 251 | 6.0 | 10.0 | 0.00 | 0.00 | 0.00 | 63 | 1012.2 |
| 20260506073003 | 62 | 261 | 6.0 | 13.0 | 0.00 | 0.00 | 0.00 | 66 | 1012.5 |
| 20260506072003 | 62 | 274 | 5.0 | 11.0 | 0.00 | 0.00 | 0.00 | 67 | 1012.6 |
| 20260506071003 | 62 | 277 | 7.0 | 13.0 | 0.00 | 0.00 | 0.00 | 68 | 1012.4 |
| 20260506062003 | 61 | 277 | 4.0 | 9.0 | 0.00 | 0.00 | 0.00 | 69 | 1012.2 |
| 20260506061003 | 60 | 258 | 2.0 | 6.0 | 0.00 | 0.00 | 0.00 | 72 | 1012.2 |
| 20260506051003 | 58 | 206 | 2.0 | 4.0 | 0.00 | 0.00 | 0.00 | 80 | 1012.4 |
| 20260506045003 | 57 | 154 | 0.0 | 2.0 | 0.00 | 0.00 | 0.00 | 82 | 1012.4 |
| 20260506044003 | 57 | 133 | 0.0 | 1.0 | 0.00 | 0.00 | 0.00 | 83 | 1012.3 |
| 20260506043003 | 55 | 133 | 0.0 | 1.0 | 0.00 | 0.00 | 0.00 | 88 | 1012.2 |
| 20260506042003 | 54 | 133 | 0.0 | 1.0 | 0.00 | 0.00 | 0.00 | 91 | 1012.6 |
| 20260506040003 | 54 | 0 | 0.0 | 0.0 | 0.00 | 0.00 | 0.00 | 93 | 1012.2 |
| 20260506035003 | 53 | 132 | 0.0 | 2.0 | 0.00 | 0.00 | 0.00 | 94 | 1012.0 |
| 20260506034003 | 54 | 130 | 1.0 | 2.0 | 0.00 | 0.00 | 0.00 | 94 | 1011.6 |
| 20260506033004 | 54 | 0 | 0.0 | 0.0 | 0.00 | 0.00 | 0.00 | 93 | 1011.9 |
| 20260506032003 | 54 | 0 | 0.0 | 0.0 | 0.00 | 0.00 | 0.00 | 93 | 1011.9 |
| 20260506031003 | 54 | 121 | 0.0 | 1.0 | 0.00 | 0.00 | 0.00 | 93 | 1011.8 |
| 20260506030003 | 55 | 125 | 1.0 | 1.0 | 0.00 | 0.00 | 0.00 | 93 | 1011.8 |